Location: Lloyden Park
(37.4658°N, 122.2031°W)
Time: 13:43:40
(UTC+00:00)

Cosmos 1378 Rocket - Pass Details

Date: 19 May 2025
Orbit: 595 x 620 km, 82.5° (Epoch: 15 June)

Event Time Altitude Azimuth Distance (km) Brightness Sun altitude
Rises 12:09:38 0° 174° (S) 2,857 6.7 -8.9°
Reaches altitude 10° 12:11:52 10° 169° (SSE) 1,961 5.9 -8.5°
Maximum altitude 12:16:05 51° 93° (E) 775 4.5 -7.8°
Drops below altitude 10° 12:20:21 10° 18° (NNE) 1,988 7.0 -7.1°
Sets 12:22:38 0° 13° (NNE) 2,900 7.7 -6.7°
